DMSP 5D-2 F13 DEB, 40579

Orbit data source: Space-Track

DMSP 5D-2 F13 DEB, 40579 is space debris in SSO originally from a launch on Fri, 24 Mar 1995 UTC launched from the Air Force Western Test Range (AFWTR). Debris objects in space refer to the collection of defunct objects orbiting the Earth. Examples of debris include non-operational satellites, rocket bodies, and fragments generated from explosions, collisions, or faulty payload assembly.

Loading next visibility...
Identifier
40579, 1995-015EN
Orbit
SSO
Country
Flag of USUS
Related business
Manufacturer
Unknown
Mission
Spacecraft
Bus & Motor
Unknown
Mass
Unknown
Launch date (UTC)
1995-03-24 (31 years ago)
Launch vehicle
Unknown
Launch site
Air Force Western Test Range (AFWTR)
Object type
Payload
Rocket body
Debris
Shape & HBR
Unknown shape, 0.1 m
Radar Cross Section
Small (<0.1 m²)

Expand to show TLE details & history
Last TLE update: 17 hours ago

TLE from 17 hours ago
0 DMSP 5D-2 F13 DEB
1 40579U 95015EN  25288.67391253  .00104144  00000-0  76203-2 0  9990
2 40579  98.4744  10.1177 0022218 277.1324  82.7372 15.02889692554543
Epoch: 2025-10-15T16:10Z
TLE epoch observation values (Epoch: 2025-10-15T16:10:26.042Z)
Latitude
-0.00007°
Longitude
103.0646°
Altitude
559.111 km
Speed
7.583 km/s
True Right ascension
00h 40m 28s
True Declination
0° 00' 00"
Sunlit
Object was in full shadow at epoch
Visualization orbit readout
Latitude
Unknown
Longitude
Unknown
Altitude
Unknown
Speed
Unknown
Apparent Right ascension
Unknown
Apparent Declination
Unknown
Sunlit
N/A
Visualization observer readout
Local Sidereal Time
03:42:32
Azimuth
Unknown
Elevation
Unknown
Doppler factor
Unknown
Orbital elements
Apogee altitude
570.432 km
Perigee altitude
539.624 km
Semi-major axis
6,933.165 km
Eccentricity
0.00222
Inclination
98.4744°
RAAN
10.1177°
Arg. of periapsis
277.1324°
True anomaly
82.98984°
Mean anomaly
82.7372°
Eccentric anomaly
82.86351°
Mean motion
3.75964 °/min
Orbital period
95.75 mins
BSTAR
0.0076203
Loading maneuver chart data...
Computing Atmospheric mass density...

Documentation

Showing up to 5 results
|